Home > Weather > Hayward > Past weeks

Flag for USA Weather for the Past 2 Weeks in Hayward, California, USA

Now
66 °F

Sunny.


Feels Like: 66 °F
Forecast: 56 / 65 °F
Wind: 15 mph from Northwest

Location: Hayward Air Terminal

Current Time: May 4, 2016 at 6:36:46 PM

Latest Report: May 4, 2016 at 5:54 PM


Visibility: 10 mi

Pressure: 29.88 "Hg

Humidity: 59%

Dew Point: 51 °F

Location of HaywardLocation

Historic Weather in Hayward — Graph

°F

Hayward Temperature Yesterday

Maximum temperature yesterday: 70 °F (at 3:54 PM)
Minimum temperature yesterday: 54 °F (at 1:54 AM)
Average temperature yesterday: 60 °F

High & Low Weather Summary for the Past Weeks

 TemperatureHumidityPressure
High82 °F (May 1, 2:54 PM)87% (Apr 22, 7:54 AM)30.23 "Hg (Apr 22, 7:54 AM)
Low47 °F (Apr 26, 5:54 AM)21% (Apr 19, 6:54 PM)29.82 "Hg (May 1, 2:54 AM)
Average60 °F63%29.99 "Hg
* Reported Apr 19 4:54 PM — May 4 4:54 PM, Hayward, Weather by CustomWeather, © 2016

Note: Actual official high and low records may vary slightly from our data, if they occured in-between our weather recording intervals... More about our weather records

Advertising

Hayward Weather History for the Previous 24 Hours

Scroll right to see more
 ConditionsComfort  
Time TempWeatherWind HumidityBarometerVisibility
4:54 PM
Wed, May 4
67 °FSunny.14 mph53%29.86 "Hg10 mi
3:54 PM69 °FSunny.10 mph49%29.87 "Hg10 mi
2:54 PM68 °FSunny.7 mph51%29.90 "Hg10 mi
1:54 PM66 °FSunny.9 mph56%29.92 "Hg10 mi
12:54 PM64 °FScattered clouds.3 mph63%29.94 "Hg10 mi
11:54 AM63 °FSunny.7 mph65%29.93 "Hg10 mi
10:54 AM62 °FPassing clouds.5 mph65%29.92 "Hg10 mi
9:54 AM61 °FOvercast.5 mph70%29.91 "Hg10 mi
8:54 AM59 °FOvercast.3 mph75%29.91 "Hg10 mi
7:54 AM58 °FOvercast.No wind78%29.91 "Hg10 mi
6:54 AM57 °FOvercast.3 mph81%29.91 "Hg10 mi
5:54 AM56 °FPassing clouds.No wind81%29.90 "Hg10 mi
4:54 AM57 °FOvercast.6 mph78%29.90 "Hg10 mi
3:54 AM56 °FOvercast.6 mph84%29.92 "Hg10 mi
2:54 AM56 °FOvercast.7 mph81%29.93 "Hg10 mi
1:54 AM56 °FClear.7 mph81%29.94 "Hg10 mi
12:54 AM57 °FPassing clouds.9 mph81%29.95 "Hg10 mi
11:54 PM
Tue, May 3
57 °FClear.9 mph81%29.95 "Hg10 mi
10:54 PM58 °FClear.5 mph78%29.96 "Hg10 mi
9:54 PM58 °FPassing clouds.5 mph78%29.96 "Hg10 mi
8:54 PM59 °FSunny.8 mph78%29.95 "Hg10 mi
7:54 PM60 °FSunny.5 mph69%29.93 "Hg10 mi
6:54 PM62 °FSunny.8 mph67%29.94 "Hg10 mi
Weather by CustomWeather, © 2016

See weather overviewHow to use our weather pages